Location: Anmer
(52.8333°N, 0.5833°E)
Time: 04:49:13
(UTC+00:00)

Cosmos 1464 Rocket - Pass Details

Date: 15 May 2026
Orbit: 952 x 1000 km, 82.9° (Epoch: 6 June)

Event Time Altitude Azimuth Distance (km) Brightness Sun altitude
Exits shadow 21:18:41 - 171° (S) 2,727 5.8 -10.7°
Reaches altitude 10° 21:18:49 10° 170° (S) 2,679 5.8 -10.7°
Maximum altitude 21:24:48 59° 93° (E) 1,106 4.1 -11.2°
Drops below altitude 10° 21:30:53 10° 16° (NNE) 2,721 6.9 -11.7°
Sets 21:33:26 0° 13° (NNE) 3,679 7.7 -11.9°
